Location: Spring Creek
(38.2870°N, 100.2160°W)
Time: 05:03:49
(UTC+00:00)

Meteor 2-15 - Pass Details

Date: 03 October 2021
Orbit: 937 x 955 km, 82.5° (Epoch: 27 October)

Event Time Altitude Azimuth Distance (km) Brightness Sun altitude
Exits shadow 08:03:30 10° 25° (NNE) 2,646 7.2 -49.7°
Drops below altitude 10° 08:03:37 10° 25° (NNE) 2,687 7.3 -49.7°
Sets 08:06:16 0° 17° (NNE) 3,630 8.1 -49.4°
